When you browse on this site, cookies collect data to enhance your experience and personalize the content and advertising you see.
Visit our Privacy Policy to learn more. By continuing to use the site, you agree to this use of cookies and data.
  • In Hungary
  • List of Countries
  • For 7 days
  • Water Temperature
  • Satellite Maps
  • Weather Map
  • News
  • Weather Widgets
  • user-avatar
    Login

    Hourly Weather Boma

    Today, 14 December, Friday

    Time Temperature Precipitation Wind Pressure Humidity
    00:00 +23°C° 0 mm 1 mps 702 mmHg 35%
    01:00 +23°C° 0 mm 1 mps 701 mmHg 36%
    02:00 +20°C° 0 mm 0 mps 701 mmHg 36%
    03:00 +20°C° 0 mm 0 mps 701 mmHg 37%
    04:00 +19°C° 0 mm 0 mps 701 mmHg 38%
    05:00 +19°C° 0 mm 0 mps 701 mmHg 39%
    06:00 +19°C° 0 mm 0 mps 702 mmHg 40%
    07:00 +20°C° 0 mm 0 mps 702 mmHg 40%
    08:00 +26°C° 0 mm 1 mps 702 mmHg 33%
    09:00 +29°C° 0 mm 1 mps 703 mmHg 27%
    10:00 +32°C° 0 mm 2 mps 703 mmHg 20%
    11:00 +35°C° 0 mm 2 mps 702 mmHg 18%
    12:00 +37°C° 0 mm 2 mps 702 mmHg 16%
    13:00 +39°C° 0 mm 2 mps 702 mmHg 13%
    14:00 +38°C° 0 mm 2 mps 701 mmHg 13%
    15:00 +38°C° 0 mm 2 mps 700 mmHg 13%
    16:00 +38°C° 0 mm 2 mps 700 mmHg 13%
    17:00 +34°C° 0 mm 1 mps 700 mmHg 17%
    18:00 +31°C° 0 mm 1 mps 700 mmHg 21%
    19:00 +26°C° 0 mm 0 mps 700 mmHg 25%
    20:00 +25°C° 0 mm 0 mps 700 mmHg 25%
    21:00 +27°C° 0 mm 1 mps 701 mmHg 26%
    22:00 +26°C° 0 mm 1 mps 701 mmHg 27%
    23:00 +23°C° 0 mm 0 mps 701 mmHg 28%

    Tomorrow, 15 December, Saturday

    Time Temperature Precipitation Wind Pressure Humidity
    00:00 +22°C° 0 mm 0 mps 701 mmHg 29%
    01:00 +21°C° 0 mm 0 mps 701 mmHg 30%
    02:00 +21°C° 0 mm 0 mps 701 mmHg 33%
    03:00 +20°C° 0 mm 0 mps 701 mmHg 36%
    04:00 +21°C° 0 mm 1 mps 700 mmHg 38%
    05:00 +19°C° 0 mm 0 mps 701 mmHg 44%
    06:00 +20°C° 0 mm 0 mps 701 mmHg 49%
    07:00 +20°C° 0 mm 0 mps 702 mmHg 55%
    08:00 +23°C° 0 mm 0 mps 702 mmHg 47%
    09:00 +27°C° 0 mm 0 mps 703 mmHg 40%
    10:00 +31°C° 0 mm 0 mps 704 mmHg 32%
    11:00 +35°C° 0 mm 1 mps 703 mmHg 26%
    12:00 +36°C° 0 mm 1 mps 703 mmHg 21%
    13:00 +39°C° 0 mm 1 mps 702 mmHg 15%
    14:00 +39°C° 0 mm 1 mps 701 mmHg 14%
    15:00 +39°C° 0 mm 1 mps 701 mmHg 13%
    16:00 +37°C° 0 mm 1 mps 700 mmHg 13%
    17:00 +34°C° 0 mm 1 mps 700 mmHg 16%
    18:00 +29°C° 0 mm 0 mps 700 mmHg 20%
    19:00 +26°C° 0 mm 0 mps 700 mmHg 24%
    20:00 +27°C° 0 mm 1 mps 700 mmHg 26%
    21:00 +26°C° 0 mm 1 mps 701 mmHg 28%
    22:00 +25°C° 0 mm 1 mps 701 mmHg 31%
    23:00 +25°C° 0 mm 1 mps 701 mmHg 32%

    Day after tomorrow, 16 December, Sunday

    Time Temperature Precipitation Wind Pressure Humidity
    00:00 +24°C° 0 mm 1 mps 701 mmHg 34%
    01:00 +23°C° 0 mm 1 mps 701 mmHg 36%
    02:00 +23°C° 0 mm 1 mps 701 mmHg 44%
    03:00 +22°C° 0 mm 1 mps 701 mmHg 51%
    04:00 +21°C° 0 mm 1 mps 701 mmHg 59%
    05:00 +21°C° 0 mm 1 mps 701 mmHg 64%
    06:00 +20°C° 0 mm 0 mps 701 mmHg 69%
    07:00 +20°C° 0 mm 0 mps 701 mmHg 74%
    08:00 +26°C° 0 mm 1 mps 702 mmHg 59%
    09:00 +30°C° 0 mm 1 mps 703 mmHg 43%
    10:00 +33°C° 0 mm 1 mps 703 mmHg 28%
    11:00 +35°C° 0 mm 1 mps 703 mmHg 23%
    12:00 +37°C° 0 mm 1 mps 702 mmHg 17%
    13:00 +40°C° 0 mm 1 mps 701 mmHg 12%
    14:00 +40°C° 0 mm 1 mps 700 mmHg 12%
    15:00 +40°C° 0 mm 1 mps 700 mmHg 11%
    16:00 +39°C° 0 mm 1 mps 699 mmHg 11%
    17:00 +35°C° 0 mm 1 mps 699 mmHg 15%
    18:00 +32°C° 0 mm 1 mps 699 mmHg 18%
    19:00 +27°C° 0 mm 0 mps 699 mmHg 22%
    20:00 +28°C° 0 mm 1 mps 700 mmHg 24%
    21:00 +27°C° 0 mm 1 mps 701 mmHg 26%
    22:00 +26°C° 0 mm 1 mps 701 mmHg 28%
    23:00 +25°C° 0 mm 1 mps 701 mmHg 33%

    17 December, Monday

    Time Temperature Precipitation Wind Pressure Humidity
    00:00 +24°C° 0 mm 1 mps 701 mmHg 37%
    01:00 +24°C° 0 mm 1 mps 701 mmHg 42%
    02:00 +23°C° 0 mm 1 mps 700 mmHg 51%
    03:00 +23°C° 0 mm 1 mps 700 mmHg 60%
    04:00 +22°C° 0 mm 1 mps 700 mmHg 69%
    05:00 +22°C° 0 mm 1 mps 700 mmHg 72%
    06:00 +22°C° 0 mm 1 mps 701 mmHg 76%
    07:00 +22°C° 0 mm 1 mps 701 mmHg 79%
    08:00 +26°C° 0 mm 1 mps 702 mmHg 62%
    09:00 +29°C° 0 mm 1 mps 703 mmHg 44%
    10:00 +33°C° 0 mm 1 mps 703 mmHg 27%
    11:00 +34°C° 0 mm 1 mps 703 mmHg 23%
    12:00 +36°C° 0 mm 1 mps 702 mmHg 19%
    13:00 +38°C° 0 mm 2 mps 701 mmHg 14%
    14:00 +37°C° 0 mm 1 mps 700 mmHg 14%
    15:00 +37°C° 0 mm 1 mps 700 mmHg 14%
    16:00 +37°C° 0 mm 1 mps 699 mmHg 13%
    17:00 +34°C° 0 mm 1 mps 699 mmHg 17%
    18:00 +31°C° 0 mm 1 mps 699 mmHg 21%
    19:00 +26°C° 0 mm 0 mps 699 mmHg 26%
    20:00 +25°C° 0 mm 0 mps 700 mmHg 27%
    21:00 +26°C° 0 mm 1 mps 700 mmHg 28%
    22:00 +25°C° 0 mm 1 mps 701 mmHg 29%
    23:00 +25°C° 0 mm 1 mps 701 mmHg 29%

    18 December, Tuesday

    Time Temperature Precipitation Wind Pressure Humidity
    00:00 +24°C° 0 mm 1 mps 701 mmHg 30%
    01:00 +21°C° 0 mm 0 mps 700 mmHg 30%
    02:00 +21°C° 0 mm 0 mps 700 mmHg 33%
    03:00 +20°C° 0 mm 0 mps 700 mmHg 35%
    04:00 +19°C° 0 mm 0 mps 700 mmHg 38%
    05:00 +19°C° 0 mm 0 mps 700 mmHg 40%
    06:00 +19°C° 0 mm 0 mps 701 mmHg 41%
    07:00 +19°C° 0 mm 0 mps 701 mmHg 43%
    08:00 +23°C° 0 mm 0 mps 702 mmHg 34%
    09:00 +27°C° 0 mm 0 mps 702 mmHg 26%
    10:00 +33°C° 0 mm 1 mps 703 mmHg 17%
    11:00 +34°C° 0 mm 1 mps 702 mmHg 15%
    12:00 +36°C° 0 mm 1 mps 701 mmHg 14%
    13:00 +37°C° 0 mm 1 mps 701 mmHg 12%
    14:00 +37°C° 0 mm 1 mps 700 mmHg 12%
    15:00 +37°C° 0 mm 1 mps 699 mmHg 12%
    16:00 +37°C° 0 mm 1 mps 699 mmHg 12%
    17:00 +34°C° 0 mm 1 mps 699 mmHg 15%
    18:00 +28°C° 0 mm 0 mps 699 mmHg 19%
    19:00 +25°C° 0 mm 0 mps 699 mmHg 22%
    20:00 +25°C° 0 mm 0 mps 700 mmHg 23%
    21:00 +26°C° 0 mm 1 mps 700 mmHg 24%
    22:00 +25°C° 0 mm 1 mps 701 mmHg 25%
    23:00 +24°C° 0 mm 1 mps 700 mmHg 26%

    19 December, Wednesday

    Time Temperature Precipitation Wind Pressure Humidity
    00:00 +24°C° 0 mm 1 mps 700 mmHg 27%
    01:00 +23°C° 0 mm 1 mps 700 mmHg 27%
    02:00 +22°C° 0 mm 1 mps 700 mmHg 31%
    03:00 +21°C° 0 mm 1 mps 700 mmHg 34%
    04:00 +21°C° 0 mm 1 mps 700 mmHg 37%
    05:00 +19°C° 0 mm 0 mps 700 mmHg 41%
    06:00 +19°C° 0 mm 0 mps 701 mmHg 46%
    07:00 +19°C° 0 mm 0 mps 701 mmHg 50%
    08:00 +23°C° 0 mm 0 mps 702 mmHg 41%
    09:00 +28°C° 0 mm 1 mps 703 mmHg 32%
    10:00 +32°C° 0 mm 1 mps 703 mmHg 23%
    11:00 +34°C° 0 mm 1 mps 702 mmHg 19%
    12:00 +35°C° 0 mm 1 mps 702 mmHg 16%
    13:00 +37°C° 0 mm 1 mps 701 mmHg 12%
    14:00 +37°C° 0 mm 1 mps 700 mmHg 12%
    15:00 +36°C° 0 mm 1 mps 700 mmHg 12%
    16:00 +36°C° 0 mm 1 mps 699 mmHg 13%
    17:00 +33°C° 0 mm 1 mps 699 mmHg 16%
    18:00 +30°C° 0 mm 1 mps 699 mmHg 19%
    19:00 +25°C° 0 mm 0 mps 699 mmHg 23%
    20:00 +24°C° 0 mm 0 mps 700 mmHg 23%
    21:00 +26°C° 0 mm 1 mps 700 mmHg 24%
    22:00 +25°C° 0 mm 1 mps 701 mmHg 25%
    23:00 +24°C° 0 mm 1 mps 700 mmHg 25%
    Show more